Regional Weather Roundup
Issued by NWS Grand Forks, ND

Home | Current Version | Previous Version | Text Only | Print | Product List | Glossary Off
Versions: 1 2 3 4 5 6 7 8 9 10 11 12 13 14 15 16 17 18 19 20 21 22 23 24 25 26 27 28 29 30 31 32 33 34 35 36 37 38 39 40 41 42 43 44 45 46 47 48 49 50

000
ASUS43 KFGF 230831
RWRFGF
PRAIRIE TO PINES  WEATHER ROUNDUP
NATIONAL WEATHER SERVICE EASTERN NORTH DAKOTA/GRAND FORKS ND
300 AM CDT WED JUL 23 2014

 **SATELLITE DATA USED TO AUGMENT SKY COVER AT AUTOMATED STATIONS**
 *****  WEATHER ACROSS EASTERN NORTH DAKOTA  *****

CITY           SKY/WX    TMP DP  RH WIND       PRES   REMARKS
GRAND FORKS    CLEAR     58  56  93 NW3       30.26S
GRAND FRKS AFB PTCLDY    62  62  99 NW6       30.28R
GRAND FRKS NWS   N/A     59 N/A N/A N2          N/A
DEVILS LAKE    PTCLDY    63  57  82 NE5       30.27S
FARGO          PTCLDY    60  57  89 N3        30.25F
WAHPETON ARPT  SUNNY     57  52  82 CALM      30.25S
$$

 ***** WEATHER ACROSS CENTRAL AND WESTERN NORTH DAKOTA  *****

CITY           SKY/WX    TMP DP  RH WIND       PRES   REMARKS
BISMARCK       MOCLDY    65  62  90 NE5       30.25S
MINOT          LGT RAIN  64  62  93 E3        30.26R
JAMESTOWN      CLEAR     61  57  87 S5        30.27S
MINOT AFB      CLOUDY    65  64  98 S6        30.26S
GARRISON         N/A     67  65  93 NW5       30.26R
WILLISTON      PTCLDY    68  62  81 SE3       30.23F
DICKINSON      MOCLDY    62  60  93 SE7       30.24S
HETTINGER      PTCLDY    62  59  90 E8        30.24F
$$

 *****  OTHER AIRPORT OBSERVATIONS IN OUR AREA  *****

CITY           SKY/WX    TMP DP  RH WIND       PRES   REMARKS
WALHALLA       CLOUDY    55  55 100 NW5         N/A
GRAFTON AIRPOR FAIR      57  57 100 N5        30.28S
VALLEY CITY AR CLOUDY    63  63 100 SW5       30.28S
CANDO          CLOUDY    63  55  77 E7        30.30S
CAVALIER APRT  FAIR      57  55  94 W3        30.30R
GWINNER        SUNNY     61  61 100 W5        30.29R
SHEYENNE NWR     N/A     56  55  97 CALM      29.95S
ROLLA          CLOUDY    55  55 100 N3        30.33R
 ***** THE ABOVE OBSERVATIONS ARE NON NWS ARE NOT QUALITY
       CONTROLLED AND MAY MIS-REPORT RAIN FOR SNOW...
$$

  *****  WEATHER ACROSS NORTHERN MINNESOTA  *****

CITY           SKY/WX    TMP DP  RH WIND       PRES   REMARKS
FLAG ISLAND    PTCLDY    63  55  77 E5        30.25R
WARROAD        CLEAR     55  52  88 NW7       30.26S
ROSEAU         CLEAR     55  52  88 NW6       30.26S
HALLOCK        MOCLDY    61  57  88 N6        30.29R
THF RVR FALLS  CLEAR     59  55  88 CALM      30.27R
BAUDETTE       CLEAR     58  56  93 N3        30.25R
WASKISH        CLEAR     61  55  82 NW8       30.24S
CROOKSTON      CLEAR     61  55  82 CALM      30.27S
$$
  *****  WEATHER ACROSS CENTRAL AND WEST MINNESOTA  *****

CITY           SKY/WX    TMP DP  RH WIND       PRES   REMARKS
FOSSTON        CLEAR     54  52  94 CALM      30.27S
BEMIDJI        CLEAR     53  52  95 NW5       30.25S
PARK RAPIDS    CLEAR     54  52  93 CALM      30.25S
ELBOW LAKE     FAIR      60  56  89 N3        30.25S
WADENA         CLEAR     55  54  94 NW3       30.24F
DETROIT LAKES  PTCLDY    61  55  82 CALM      30.27S
MOORHEAD       PTCLDY    59  59 100 CALM      30.26S
FERGUS FALLS   CLEAR     61  54  77 NE5       30.24F
MORRIS MN      CLEAR     55  54  94 CALM      30.24F
STAPLES        CLEAR     55  52  88 CALM      30.24S
$$
  *****  WEATHER ELSEWHERE ACROSS MINNESOTA  *****

CITY           SKY/WX    TMP DP  RH WIND       PRES   REMARKS
DULUTH         PTCLDY    60  52  74 N8        30.19S
INTRNTL FALLS  CLEAR     59  54  83 NE5       30.23R
ELY            CLEAR     52  50  93 CALM      30.21S
CLOQUET        CLEAR     55  52  88 NW3       30.20S
WHEATON        CLEAR     57  55  94 CALM      30.27S
BRAINERD       CLEAR     57  54  89 CALM      30.23S
HIBBING        CLEAR     56  52  86 NW3       30.21R
ALEXANDRIA     PTCLDY    62  58  86 N3        30.26S
SAINT CLOUD    CLEAR     59  54  83 NW5       30.21S
MINNEAPOLIS    CLEAR     67  56  67 N7        30.18S
$$

  *****  WEATHER ACROSS SOUTH DAKOTA  *****

CITY           SKY/WX    TMP DP  RH WIND       PRES   REMARKS
SIOUX FALLS    PTCLDY    61  56  83 N6        30.24F
BROOKINGS      NOT AVBL
WATERTOWN      CLEAR     58  55  90 N3        30.26F
HURON          CLEAR     63  58  83 E7        30.23F
SISSETON         N/A     58  56  93 CALM      30.25F
ABERDEEN       CLEAR     59  58  96 E8        30.25S
MITCHELL       CLEAR     63  60  90 E6        30.24S
PIERRE         MOCLDY    66  59  78 E8        30.22R
MOBRIDGE       MOCLDY    65  61  87 E8        30.24R
RAPID CITY     CLOUDY    64  56  75 SE21G26   30.21F
$$

  *****  SOME WEATHER IN NEARBY STATES *****

CITY           SKY/WX    TMP DP  RH WIND       PRES   REMARKS
GLASGOW MT     CLEAR     66  57  72 E12       30.20F
GREAT FALLS MT PTCLDY    62  56  80 E3        30.16R
CHEYENNE WY    CLEAR     66  60  81 S13       30.41S
SCOTTSBLUFF NE CLEAR     71  63  75 SE15G23   30.30F
OMAHA NE       PTCLDY    68  62  81 N9        30.20R
DES MOINES IA  CLEAR     72  60  66 N12       30.14S
DAVENPORT IA   CLEAR     69  66  90 N8        30.08S
CHICAGO IL     MOCLDY    67  55  65 N20G29    30.07R
EAU CLAIRE WI  CLEAR     60  59  96 N3        30.16S
LA CROSSE WI   CLEAR     68  58  70 NE7       30.14S
$$

  *****  SOME NATIONAL WEATHER *****

CITY           SKY/WX    TMP DP  RH WIND       PRES   REMARKS
LA GUARDIA NY  PTCLDY    75  62  64 SW7       29.99F
RALEIGH NC     FOG       73  70  88 CALM      30.06F VSB 1/4
ATLANTA GA     PTCLDY    73  70  90 CALM      30.08F
NEW ORLEANS LA CLOUDY    78  72  81 E5        30.01F
OKLAHOMA CITY  PTCLDY    75  71  87 CALM      30.11S
ALBUQUERQUE NM PTCLDY    73  55  53 N5        30.34S
SALT LAKE CITY PTCLDY    75  41  29 S8        30.09R
LOS ANGELES CA CLEAR     68  61  78 S3        30.00F
BOISE ID       LGT RAIN  72  54  53 NW20      30.05R
SEATTLE WA     LGT RAIN  65  59  81 NE6       30.02F
$$

*** WEATHER ACROSS MANITOBA...SASKATCHEWAN AND ONTARIO ***
                ***ONTARIO***

CITY           SKY/WX    TMP DP  RH WIND       PRES   REMARKS
GERALDTON      CLEAR     48  48 100 W2        30.15R
THUNDER BAY    CLOUDY    59  55  88 VRB2      30.17R
SIOUX LOOKOUT  CLEAR     46  46 100 NW2       30.24R
TORONTO        MOCLDY    75  70  83 W13       29.84F
BIG TROUT LK   CLEAR     55  48  76 W7        30.15S
PICKLE LAKE    NOT AVBL
DRYDEN         CLEAR     54  50  87 N5        30.24S
KENORA         MOCLDY    59  54  82 N3        30.27R
$$
                *** MANITOBA***

CITY           SKY/WX    TMP DP  RH WIND       PRES   REMARKS
BRANDON        PTCLDY    57  54  88 NE7       30.33F
DAUPHIN        CLEAR     50  48  93 W5        30.32S
ISLAND LAKE    PTCLDY    61  48  63 W8        30.24S
PILOT MOUND      N/A     54  52  94 E5          N/A
THE PAS        CLEAR     54  50  87 CALM      30.28R
THOMPSON       PTCLDY    46  46 100 W3        30.23S
WINNIPEG       CLEAR     48  48 100 NW6       30.30S
LYNN LAKE      CLEAR     48  46  93 W7        30.25S
CHURCHILL      CLOUDY    61  52  72 W12       30.02S
GILLAM         PTCLDY    61  52  72 W9        30.14S
$$
                ***SASKATCHEWAN***

CITY           SKY/WX    TMP DP  RH WIND       PRES   REMARKS
ESTEVAN        CLOUDY    63  57  82 E8        30.28S
KINDERSLEY     MOCLDY    64  59  82 SE13G20   30.18F
LLOYDMINSTER   CLOUDY    63  54  72 SE14      30.17F
PRINCE ALBERT  CLEAR     54  50  87 E6        30.27R
REGINA         MOCLDY    63  52  67 E9        30.28F
YORKTON        CLEAR     57  52  82 SE6       30.32F
N. BATTLEFORD  MOCLDY    61  55  82 SE8       30.23F
LA RONGE       PTCLDY    54  52  94 CALM      30.24S
SASKATOON      MOCLDY    63  54  72 SE9       30.26F
SWIFT CURRENT  CLOUDY    64  57  77 SE10      30.22F
$$
NOTE: THESE ARE AUTOMATED STATIONS WITH LIMITED QUALITY CONTROL
      "FAIR" INDICATES FEW OR NO CLOUDS BELOW 12,000 FEET WITH NO
      SIGNIFICANT WEATHER AND/OR OBSTRUCTIONS TO VISIBILITY.
      SKY/WX - SKY CONDITION AND SIGNIFICANT WEATHER.
      TMP - AIR TEMPERATURE.    DP   - DEWPOINT TEMPERATURE.
      RH  - RELATIVE HUMIDITY.  PRES - PRESSURE.
      HX  - HEAT INDEX.         WCI  - WIND CHILL INDEX.
$


USA.gov is the U.S. government's official web portal to all federal, state and local government web resources and services.